Location: Cicognara
(44.9500°N, 10.4667°E)
Time: 13:55:29
(UTC+00:00)

Cosmos 1536 Rocket - Pass Details

Date: 20 June 2021
Orbit: 604 x 633 km, 82.5° (Epoch: 02 August)

Event Time Altitude Azimuth Distance (km) Brightness Sun altitude
Exits shadow 20:28:10 15° 157° (SSE) 1,721 5.2 -11.2°
Maximum altitude 20:31:33 40° 92° (E) 926 4.1 -11.6°
Drops below altitude 10° 20:35:44 10° 23° (NNE) 2,012 6.6 -12.0°
Sets 20:38:03 0° 16° (NNE) 2,919 7.6 -12.3°
